Wind_Speed
59 58 57 56 56 55 54 54 54 55 55 55 56 57 59 61 62 65 68 72 75 77 80 81 82 81 79 76 76 77 76 76 75 74 72 70 68 66 62 57 55 54
61 61 60 59 59 58 57 56 55 55 55 55 55 55 56 57 58 59 60 62 65 68 72 76 79 80 81 80 80 81 81 81 80 80 79 77 75 74 71 67 64 63
63 63 62 62 61 60 59 59 57 56 56 56 56 56 56 56 57 57 58 58 59 60 61 64 67 71 74 76 78 81 82 81 81 83 85 84 83 81 79 78 76 75
65 64 64 63 63 62 61 60 60 59 58 58 57 57 57 57 57 57 58 59 59 59 59 59 60 62 64 66 68 72 75 75 75 76 80 85 88 87 85 84 83 83
66 66 66 65 65 64 63 62 62 61 61 60 59 59 59 58 59 59 59 59 59 59 59 59 59 60 60 61 63 64 66 68 70 70 71 77 82 85 85 85 84 82
68 67 67 67 66 66 65 65 64 63 62 62 62 61 61 60 60 60 60 60 60 60 60 60 60 61 61 61 62 63 64 65 67 68 69 70 73 77 79 82 83 81
70 70 69 69 68 68 67 66 66 65 65 64 64 63 63 63 62 62 61 61 61 61 61 61 61 62 62 62 63 63 64 65 66 67 68 69 69 70 72 75 78 79
72 72 72 71 71 71 70 69 68 68 67 67 66 66 66 65 65 64 64 63 62 62 62 62 63 63 63 63 63 63 64 65 65 66 67 68 68 68 69 70 72 73
74 74 73 73 73 73 72 72 71 70 69 69 69 69 68 68 68 67 67 66 65 64 63 63 63 64 64 64 64 64 64 65 65 65 66 67 68 68 69 69 70 71
74 75 75 74 74 74 74 73 73 72 71 70 70 70 70 69 69 69 68 68 67 67 66 65 64 64 64 65 65 65 65 65 66 66 66 66 67 68 68 69 69 70
73 74 75 75 75 74 74 74 74 73 73 72 71 70 70 70 70 69 69 69 68 68 68 67 67 66 65 65 65 65 65 65 66 66 66 66 67 67 68 68 69 69
74 74 74 75 75 75 74 74 74 74 73 73 73 72 71 71 70 70 70 70 69 69 69 68 68 68 67 67 66 66 66 65 66 66 66 66 67 68 68 67 68 69
77 76 75 75 75 75 75 75 75 74 74 74 73 73 72 72 72 72 71 71 71 71 70 70 69 69 69 68 68 68 68 67 67 67 67 67 67 68 68 68 68 69
80 79 78 77 76 76 76 76 76 75 75 75 75 74 74 73 73 73 72 72 73 73 72 72 71 71 71 70 70 70 70 69 69 69 68 68 68 69 69 69 69 69
81 82 81 81 80 79 78 78 77 77 77 77 76 76 75 75 74 74 73 73 74 74 74 73 73 73 73 72 72 72 71 71 71 71 71 71 71 71 71 71 70 70
84 83 84 84 83 82 81 81 80 79 79 78 78 78 78 77 77 76 75 75 75 75 75 75 75 75 75 75 74 74 74 73 73 73 73 73 73 73 73 73 73 73
87 86 86 86 86 85 85 84 83 82 81 81 80 80 80 80 80 79 78 78 77 77 77 77 76 76 76 76 76 76 76 75 75 75 75 74 75 75 75 75 76 76
91 90 89 88 88 88 87 87 86 85 84 83 83 82 82 82 82 81 81 81 80 80 79 79 79 79 78 78 78 78 78 78 78 77 77 77 77 77 76 77 77 77
94 94 93 92 91 90 90 89 89 88 87 86 85 85 84 84 83 83 83 83 83 82 82 81 81 81 80 80 80 79 79 79 79 79 79 78 78 79 78 78 79 78
97 96 96 95 95 94 93 92 91 91 90 90 89 88 87 87 86 85 85 84 84 84 83 83 83 83 82 82 82 81 80 80 80 80 80 79 80 80 79 79 79 79
98 98 98 97 97 97 96 95 94 93 92 92 91 91 90 90 89 88 88 87 86 85 84 84 83 83 83 83 83 82 82 81 81 81 80 80 80 80 80 80 80 79
100 100 99 99 98 98 98 98 97 96 95 94 93 93 92 92 92 91 91 90 89 88 87 85 84 83 83 83 82 82 82 81 81 81 80 80 79 79 79 79 80 80
101 100 100 99 99 98 98 98 98 98 98 97 95 94 93 93 93 93 92 92 92 91 90 89 87 85 84 83 82 81 81 80 80 79 79 79 80 79 78 78 78 80
102 101 101 100 99 99 98 98 97 97 98 98 97 96 94 93 93 93 93 92 92 93 92 91 90 88 86 85 84 83 81 80 79 79 78 77 77 79 78 77 77 77
104 103 102 101 100 100 99 98 98 97 97 97 97 97 96 95 94 93 92 92 92 92 92 92 91 91 89 87 86 84 83 82 80 80 79 77 77 77 77 77 77 76
106 105 104 103 102 101 100 100 99 98 98 97 96 96 96 96 96 95 94 93 92 92 91 91 91 91 91 90 88 86 85 84 83 81 80 78 77 76 76 76 77 76
Wind_Direction
246 246 247 248 249 250 250 251 251 252 252 252 250 249 247 245 243 242 241 241 241 242 242 243 245 247 247 244 243 246 249 250 250 249 248 247 247 247 247 245 245 248
246 247 247 247 248 249 250 250 251 251 253 254 254 254 253 253 251 248 246 244 243 242 242 242 243 244 245 244 243 244 248 251 251 251 251 251 249 248 247 246 246 247
246 246 247 247 248 248 249 250 251 251 252 253 254 255 255 256 256 255 254 252 250 248 246 245 244 243 244 243 242 242 245 249 250 250 251 252 252 252 250 249 249 249
248 247 247 247 248 248 248 249 250 251 251 252 252 254 255 256 257 258 258 258 257 256 255 252 250 248 247 246 244 242 243 245 246 247 249 250 252 254 255 254 253 252
249 249 249 248 248 248 248 248 249 250 251 252 252 252 253 254 256 257 258 259 260 260 260 259 258 256 255 254 252 250 248 247 247 246 247 248 249 251 254 256 256 256
249 249 249 249 249 249 249 249 249 249 250 251 252 252 253 253 254 255 256 257 259 260 260 261 261 261 260 260 259 258 256 255 254 253 252 252 251 251 252 254 256 258
250 250 249 249 250 250 250 250 250 250 250 251 251 252 253 253 253 254 254 255 256 258 259 260 260 261 262 262 262 262 262 261 261 260 260 259 259 258 257 257 258 259
251 251 251 251 251 251 251 251 251 251 251 252 252 252 253 254 254 254 255 255 255 256 257 258 259 260 261 261 262 263 264 264 264 264 264 265 265 265 264 263 263 263
251 252 252 252 252 252 252 252 252 252 252 252 253 253 254 254 254 255 255 255 256 256 256 257 258 259 260 261 262 263 263 264 265 266 266 267 267 268 268 268 268 268
250 251 252 253 253 253 253 253 253 254 253 253 253 253 254 254 255 255 256 256 256 256 257 257 257 258 259 260 261 262 263 264 265 266 267 268 268 269 269 270 271 271
250 250 251 252 253 253 254 254 254 254 254 254 254 254 254 254 255 255 256 256 257 257 257 258 258 258 259 259 260 261 262 263 264 266 267 268 269 269 270 271 272 272
250 250 249 250 251 252 253 253 254 254 254 254 254 254 254 254 255 255 255 256 256 257 258 258 258 259 259 260 260 261 261 262 263 264 265 266 268 269 270 271 271 272
249 250 249 249 249 250 251 252 253 254 254 254 255 255 255 255 255 255 256 256 256 257 257 258 258 259 260 260 261 261 262 262 263 263 264 265 266 267 268 269 270 271
247 248 249 249 249 249 249 250 251 252 253 254 254 255 255 255 255 256 256 257 257 257 258 258 258 259 259 260 260 261 261 262 263 263 264 264 265 266 267 267 268 269
246 247 248 248 249 249 248 249 249 250 251 253 253 254 255 255 255 256 256 256 257 258 258 259 259 260 260 260 261 261 262 262 263 263 264 264 265 266 267 267 267 268
245 246 246 247 248 249 249 249 249 249 250 251 252 253 254 254 255 255 255 256 256 257 258 258 259 260 260 261 261 261 262 262 263 263 264 265 265 266 267 267 268 268
247 247 247 247 247 248 249 249 250 250 250 250 251 252 253 254 254 255 255 256 256 257 257 258 258 259 260 260 261 261 262 262 263 263 264 264 265 266 266 267 268 268
250 249 249 248 248 248 248 249 250 250 251 251 251 252 253 254 255 255 256 256 256 257 257 258 258 259 259 259 260 261 262 262 262 263 264 264 264 265 265 266 267 267
251 251 251 250 250 249 249 249 249 250 250 251 252 252 253 253 254 255 256 256 257 257 257 258 258 259 259 259 260 260 261 261 262 263 263 264 264 264 265 265 266 267
253 252 252 253 252 252 251 251 250 250 250 251 251 252 253 253 253 254 254 255 256 257 258 258 258 259 259 259 260 260 260 261 262 262 263 263 263 264 264 265 265 266
254 253 253 254 254 254 254 253 253 252 252 252 252 252 253 253 254 254 254 254 255 256 257 257 258 258 259 259 260 260 260 261 261 262 262 263 263 263 264 264 265 265
254 254 254 254 254 255 255 255 255 254 254 254 254 253 254 254 254 254 255 255 254 254 255 256 256 257 258 259 259 260 260 261 261 261 262 262 263 263 264 264 264 265
253 253 253 254 254 255 255 255 256 256 256 256 255 255 255 255 255 255 255 255 255 255 255 255 255 256 256 257 258 258 259 260 260 261 261 262 263 263 263 263 264 265
253 253 253 253 253 254 254 255 255 256 256 257 257 257 256 256 256 256 255 255 256 256 256 256 255 255 255 256 257 258 259 259 260 260 261 261 262 263 263 263 263 263
253 253 253 253 253 253 254 254 254 255 255 256 256 257 257 257 257 256 256 256 256 256 256 256 256 256 256 256 256 257 258 259 260 261 261 261 262 262 263 263 262 262
254 253 253 253 253 253 254 254 254 254 254 255 255 256 256 257 257 257 256 256 256 256 256 256 257 257 257 257 257 257 258 258 259 260 261 262 262 262 262 263 263 263
Height
5647 5648 5650 5652 5653 5655 5657 5658 5660 5661 5662 5664 5666 5668 5670 5672 5674 5676 5678 5680 5683 5686 5689 5691 5694 5696 5698 5701 5703 5702 5703 5703 5704 5706 5707 5709 5711 5712 5714 5714 5715 5715
5640 5642 5644 5645 5647 5649 5651 5652 5654 5656 5657 5658 5660 5661 5663 5665 5666 5668 5670 5673 5675 5677 5680 5682 5684 5686 5688 5691 5693 5694 5696 5696 5696 5697 5698 5699 5701 5703 5705 5706 5707 5708
5634 5635 5637 5639 5640 5642 5644 5646 5648 5650 5651 5652 5654 5655 5657 5659 5660 5662 5663 5665 5667 5669 5671 5673 5675 5676 5678 5680 5683 5685 5687 5686 5686 5688 5689 5690 5692 5693 5696 5697 5698 5699
5626 5628 5630 5632 5634 5635 5637 5639 5641 5643 5644 5646 5647 5649 5651 5652 5654 5655 5657 5658 5660 5661 5663 5665 5667 5668 5669 5671 5672 5675 5677 5677 5677 5679 5680 5682 5683 5685 5686 5687 5689 5690
5618 5620 5622 5624 5626 5628 5630 5632 5634 5636 5637 5638 5640 5642 5644 5646 5647 5649 5650 5652 5653 5654 5656 5657 5659 5660 5661 5662 5663 5665 5667 5668 5669 5670 5671 5672 5675 5677 5678 5678 5679 5682
5610 5612 5614 5616 5618 5620 5622 5624 5626 5628 5630 5631 5633 5634 5636 5638 5640 5641 5643 5645 5646 5647 5649 5650 5651 5652 5653 5655 5656 5657 5658 5659 5660 5662 5663 5664 5666 5668 5669 5670 5670 5672
5600 5603 5605 5607 5610 5612 5614 5616 5618 5620 5622 5624 5625 5627 5628 5630 5632 5634 5635 5637 5639 5640 5642 5643 5644 5645 5646 5647 5648 5649 5651 5652 5653 5654 5655 5656 5658 5659 5661 5662 5662 5663
5591 5594 5596 5598 5601 5603 5605 5608 5610 5612 5614 5616 5618 5619 5621 5622 5624 5625 5627 5629 5631 5633 5634 5635 5636 5637 5638 5639 5640 5641 5643 5644 5645 5647 5648 5649 5650 5651 5652 5654 5655 5655
5582 5584 5587 5589 5592 5594 5596 5599 5601 5603 5606 5608 5610 5611 5613 5615 5616 5618 5619 5621 5623 5625 5626 5628 5629 5630 5631 5632 5633 5634 5635 5636 5637 5639 5640 5642 5643 5643 5644 5646 5647 5647
5574 5576 5578 5580 5582 5584 5587 5589 5592 5594 5597 5599 5601 5603 5605 5607 5608 5610 5612 5613 5615 5616 5618 5619 5620 5622 5623 5624 5625 5626 5627 5628 5629 5630 5632 5633 5634 5635 5636 5637 5638 5639
5565 5567 5569 5571 5573 5575 5577 5580 5582 5585 5587 5590 5592 5594 5596 5598 5600 5602 5603 5605 5607 5608 5610 5611 5612 5614 5615 5616 5618 5619 5620 5621 5621 5623 5624 5625 5625 5627 5628 5629 5630 5630
5554 5557 5560 5562 5564 5566 5568 5570 5572 5575 5577 5580 5583 5585 5587 5590 5591 5593 5595 5597 5598 5600 5602 5603 5605 5606 5607 5608 5610 5611 5612 5613 5614 5615 5616 5617 5618 5618 5620 5621 5622 5622
5544 5546 5549 5552 5555 5557 5559 5561 5563 5565 5568 5570 5573 5575 5578 5580 5583 5584 5586 5588 5590 5592 5593 5595 5597 5598 5600 5601 5602 5603 5604 5605 5607 5608 5609 5610 5610 5611 5612 5614 5614 5614
5535 5537 5539 5542 5545 5547 5550 5552 5554 5556 5559 5561 5563 5565 5568 5570 5573 5575 5577 5579 5581 5583 5584 5586 5588 5589 5591 5592 5594 5595 5596 5597 5598 5600 5601 5602 5602 5603 5604 5606 5607 5607
5525 5527 5529 5531 5534 5537 5539 5542 5545 5548 5550 5552 5553 5555 5557 5560 5563 5565 5568 5570 5571 5573 5575 5577 5579 5580 5582 5583 5585 5587 5588 5589 5590 5591 5592 5594 5594 5595 5595 5596 5598 5599
5514 5517 5519 5521 5524 5526 5529 5532 5535 5538 5541 5543 5544 5546 5548 5550 5552 5555 5558 5560 5562 5564 5566 5568 5570 5571 5572 5574 5576 5578 5579 5580 5581 5583 5584 5585 5586 5587 5587 5587 5588 5589
5502 5506 5508 5511 5513 5516 5518 5521 5524 5527 5530 5533 5535 5537 5538 5540 5543 5545 5547 5550 5552 5554 5556 5558 5560 5562 5563 5565 5566 5568 5569 5571 5572 5574 5575 5576 5577 5578 5579 5579 5579 5580
5488 5492 5496 5499 5502 5505 5508 5510 5513 5516 5519 5522 5524 5526 5529 5531 5533 5535 5537 5539 5542 5544 5546 5548 5550 5552 5554 5555 5557 5558 5560 5561 5563 5565 5566 5567 5568 5569 5570 5570 5570 5571
5474 5478 5482 5485 5489 5493 5496 5499 5502 5505 5508 5511 5513 5515 5518 5520 5522 5525 5527 5529 5531 5534 5536 5538 5540 5542 5543 5545 5547 5549 5551 5552 5553 5555 5556 5558 5558 5559 5560 5561 5561 5562
5461 5465 5468 5471 5474 5479 5483 5487 5490 5494 5497 5500 5502 5505 5507 5509 5511 5514 5517 5519 5521 5523 5526 5528 5530 5532 5533 5535 5537 5539 5541 5542 5543 5544 5546 5548 5548 5549 5550 5551 5552 5553
5448 5452 5455 5458 5461 5464 5469 5473 5477 5481 5485 5487 5490 5493 5495 5497 5500 5503 5506 5509 5511 5514 5515 5517 5520 5521 5523 5525 5527 5529 5530 5532 5533 5534 5536 5537 5538 5539 5540 5541 5542 5544
5434 5438 5442 5446 5448 5451 5455 5458 5462 5466 5470 5474 5477 5480 5483 5486 5488 5491 5494 5497 5500 5503 5505 5507 5509 5511 5513 5515 5517 5518 5519 5521 5523 5524 5526 5527 5528 5530 5530 5531 5532 5534
5420 5424 5429 5433 5436 5439 5442 5445 5448 5452 5456 5459 5463 5467 5471 5473 5476 5479 5482 5485 5487 5490 5494 5497 5499 5501 5503 5505 5506 5508 5509 5511 5512 5514 5516 5517 5518 5520 5521 5521 5522 5523
5406 5411 5416 5420 5423 5427 5430 5433 5436 5440 5442 5445 5449 5453 5457 5459 5462 5466 5470 5473 5475 5478 5481 5484 5487 5490 5493 5494 5496 5497 5499 5501 5503 5504 5506 5508 5508 5509 5511 5512 5513 5513
5392 5397 5402 5406 5410 5414 5417 5420 5424 5427 5430 5433 5436 5440 5443 5445 5449 5453 5457 5460 5463 5466 5469 5472 5474 5477 5480 5483 5485 5487 5489 5491 5493 5494 5496 5498 5499 5499 5500 5501 5503 5504
5378 5382 5387 5392 5397 5400 5403 5407 5411 5415 5417 5420 5424 5428 5430 5432 5435 5439 5443 5447 5450 5453 5457 5460 5462 5464 5467 5470 5473 5476 5479 5481 5483 5484 5485 5487 5488 5489 5489 5490 5491 5494